EWG7KE EDDK-EDDH

Flight info

Callsign EWG7KE
Flight time 0h 44m
Altitude 23000
Route PODIP4X PODIP Y867 PELUN DCT ANZIV DCT WRB Y867 TOLGI DCT SAS P605 NOLGO NOLGO3P
Aircraft A20N/M-SDE3FGHIRWY/LB1

Departure

Time 2026-04-22 20:04
Airport Cologne Bonn Airport (EDDK)

Arrival

Time 2026-04-22 20:49
Airport Hamburg Helmut Schmidt Airport (EDDH)
Time Latitude Longitude Altitude Speed Heading
2026-04-22 19:30 50.87769 7.12401 234 ft 0 kts 288°
2026-04-22 19:47 50.87769 7.12402 232 ft 1 kts 288°
2026-04-22 19:48 50.87764 7.12423 232 ft 2 kts 288°
2026-04-22 19:48 50.87760 7.12445 236 ft 2 kts 288°
2026-04-22 19:48 50.87755 7.12467 235 ft 2 kts 288°
2026-04-22 19:48 50.87751 7.12490 234 ft 2 kts 288°
2026-04-22 19:49 50.87745 7.12512 237 ft 2 kts 313°
2026-04-22 19:49 50.87733 7.12525 232 ft 2 kts 357°
2026-04-22 19:49 50.87719 7.12523 233 ft 2 kts 15°
2026-04-22 19:49 50.87718 7.12523 233 ft 0 kts 15°
2026-04-22 19:52 50.87719 7.12524 233 ft 1 kts 18°
2026-04-22 19:52 50.87740 7.12535 236 ft 5 kts 19°
2026-04-22 19:52 50.87786 7.12560 232 ft 9 kts 18°
2026-04-22 19:52 50.87849 7.12592 232 ft 11 kts 18°
2026-04-22 19:53 50.87867 7.12602 234 ft 3 kts 18°
2026-04-22 19:53 50.87902 7.12620 234 ft 7 kts 19°
2026-04-22 19:53 50.87911 7.12625 232 ft 1 kts 22°
2026-04-22 19:53 50.87935 7.12645 235 ft 7 kts 29°
2026-04-22 19:54 50.87954 7.12666 233 ft 0 kts 40°
2026-04-22 19:54 50.87958 7.12671 233 ft 3 kts 40°
2026-04-22 19:54 50.87975 7.12702 234 ft 0 kts 52°
2026-04-22 20:00 50.87984 7.12722 235 ft 4 kts 53°
2026-04-22 20:01 50.87997 7.12762 238 ft 0 kts 70°
2026-04-22 20:02 50.88001 7.12777 237 ft 4 kts 70°
2026-04-22 20:02 50.88009 7.12828 238 ft 6 kts 78°
2026-04-22 20:02 50.88013 7.12901 238 ft 8 kts 81°
2026-04-22 20:02 50.88006 7.12966 238 ft 7 kts 126°
2026-04-22 20:03 50.87992 7.12989 238 ft 0 kts 138°
2026-04-22 20:03 50.87968 7.13023 238 ft 27 kts 138°
2026-04-22 20:04 50.87645 7.13491 238 ft 96 kts 138°
2026-04-22 20:04 50.87017 7.14401 255 ft 146 kts 137°
2026-04-22 20:04 50.86204 7.15574 573 ft 161 kts 135°
2026-04-22 20:04 50.85356 7.16748 1206 ft 164 kts 137°
2026-04-22 20:05 50.84473 7.17904 1886 ft 163 kts 136°
2026-04-22 20:05 50.83597 7.19098 2416 ft 173 kts 134°
2026-04-22 20:05 50.82661 7.20443 2838 ft 191 kts 135°
2026-04-22 20:05 50.81704 7.22025 3285 ft 209 kts 123°
2026-04-22 20:06 50.80985 7.24143 3839 ft 227 kts 112°
2026-04-22 20:06 50.80530 7.26643 4546 ft 246 kts 99°
2026-04-22 20:06 50.80284 7.29419 5329 ft 261 kts 95°
2026-04-22 20:06 50.80112 7.32300 6380 ft 264 kts 94°
2026-04-22 20:07 50.79960 7.35208 7435 ft 267 kts 94°
2026-04-22 20:07 50.79787 7.38143 8512 ft 268 kts 94°
2026-04-22 20:07 50.79663 7.40096 9196 ft 271 kts 94°
2026-04-22 20:07 50.79449 7.43123 10082 ft 278 kts 95°
2026-04-22 20:08 50.79228 7.46126 10427 ft 280 kts 94°
2026-04-22 20:08 50.79013 7.49301 10661 ft 303 kts 94°
2026-04-22 20:08 50.78791 7.52745 11096 ft 324 kts 94°
2026-04-22 20:08 50.78674 7.56328 11909 ft 328 kts 83°
2026-04-22 20:09 50.79272 7.59780 12825 ft 329 kts 62°
2026-04-22 20:09 50.80628 7.62683 13694 ft 332 kts 43°
2026-04-22 20:09 50.82348 7.65146 14154 ft 334 kts 41°
2026-04-22 20:09 50.84094 7.67581 14310 ft 335 kts 41°
2026-04-22 20:10 50.85847 7.70022 14342 ft 336 kts 41°
2026-04-22 20:10 50.87596 7.72472 14363 ft 337 kts 41°
2026-04-22 20:10 50.89358 7.74957 14799 ft 341 kts 41°
2026-04-22 20:10 50.91124 7.77458 15727 ft 340 kts 41°
2026-04-22 20:11 50.92881 7.79998 16498 ft 345 kts 44°
2026-04-22 20:11 50.94475 7.82869 17257 ft 350 kts 52°
2026-04-22 20:11 50.95833 7.86098 18035 ft 354 kts 59°
2026-04-22 20:11 50.97074 7.89495 18771 ft 358 kts 58°
2026-04-22 20:12 50.98342 7.92926 19425 ft 362 kts 59°
2026-04-22 20:12 50.99627 7.96388 20089 ft 366 kts 59°
2026-04-22 20:12 51.00923 7.99888 20744 ft 369 kts 59°
2026-04-22 20:12 51.02229 8.03425 21394 ft 373 kts 59°
2026-04-22 20:13 51.03547 8.06999 22058 ft 377 kts 59°
2026-04-22 20:13 51.04873 8.10604 22709 ft 380 kts 60°
2026-04-22 20:13 51.06212 8.14249 23352 ft 383 kts 60°
2026-04-22 20:13 51.07562 8.17929 23966 ft 387 kts 60°
2026-04-22 20:14 51.08923 8.21646 24498 ft 390 kts 60°
2026-04-22 20:14 51.10289 8.25381 25075 ft 392 kts 60°
2026-04-22 20:14 51.11659 8.29148 25604 ft 395 kts 60°
2026-04-22 20:14 51.13034 8.32942 26126 ft 397 kts 61°
2026-04-22 20:15 51.14416 8.36763 26635 ft 400 kts 61°
2026-04-22 20:15 51.15808 8.40615 27130 ft 402 kts 61°
2026-04-22 20:15 51.17206 8.44486 27625 ft 405 kts 61°
2026-04-22 20:15 51.18612 8.48387 28109 ft 407 kts 61°
2026-04-22 20:16 51.20085 8.52258 28561 ft 410 kts 57°
2026-04-22 20:16 51.21831 8.55878 28995 ft 414 kts 52°
2026-04-22 20:16 51.23697 8.59395 29414 ft 416 kts 52°
2026-04-22 20:16 51.25562 8.62944 29819 ft 419 kts 52°
2026-04-22 20:17 51.27438 8.66530 30224 ft 421 kts 52°
2026-04-22 20:17 51.29318 8.70130 30609 ft 423 kts 53°
2026-04-22 20:17 51.31183 8.73706 30941 ft 426 kts 52°
2026-04-22 20:17 51.33085 8.77356 31281 ft 428 kts 53°
2026-04-22 20:18 51.34994 8.81022 31666 ft 429 kts 53°
2026-04-22 20:18 51.36905 8.84697 32103 ft 429 kts 53°
2026-04-22 20:18 51.38807 8.88359 32556 ft 428 kts 53°
2026-04-22 20:18 51.40710 8.92018 33003 ft 427 kts 52°
2026-04-22 20:19 51.42610 8.95674 33454 ft 426 kts 53°
2026-04-22 20:19 51.44525 8.99363 33893 ft 425 kts 53°
2026-04-22 20:19 51.46387 9.02957 34317 ft 424 kts 53°
2026-04-22 20:19 51.48268 9.06594 34661 ft 423 kts 53°
2026-04-22 20:20 51.50214 9.10150 34982 ft 424 kts 48°
2026-04-22 20:20 51.52373 9.13385 35247 ft 426 kts 43°
2026-04-22 20:20 51.54684 9.16368 35336 ft 425 kts 41°
2026-04-22 20:21 51.59041 9.22013 35348 ft 423 kts 42°
2026-04-22 20:21 51.63617 9.27974 35347 ft 423 kts 42°
2026-04-22 20:22 51.68189 9.33936 35346 ft 422 kts 43°
2026-04-22 20:22 51.72752 9.39898 35345 ft 422 kts 43°
2026-04-22 20:23 51.77301 9.45859 35346 ft 421 kts 43°
2026-04-22 20:23 51.81871 9.51755 35349 ft 422 kts 40°
2026-04-22 20:24 51.86966 9.56575 35345 ft 427 kts 32°
2026-04-22 20:24 51.92244 9.60940 35343 ft 426 kts 33°
2026-04-22 20:25 51.97516 9.65336 35342 ft 426 kts 33°
2026-04-22 20:25 52.02788 9.69727 35345 ft 426 kts 33°
2026-04-22 20:26 52.08053 9.74119 35331 ft 425 kts 33°
2026-04-22 20:26 52.10672 9.76304 35058 ft 422 kts 33°
2026-04-22 20:26 52.13282 9.78483 34539 ft 421 kts 34°
2026-04-22 20:26 52.15890 9.80666 33829 ft 421 kts 34°
2026-04-22 20:27 52.18496 9.82857 32937 ft 423 kts 34°
2026-04-22 20:27 52.21085 9.85039 32036 ft 427 kts 33°
2026-04-22 20:27 52.23747 9.87237 31117 ft 432 kts 30°
2026-04-22 20:27 52.26579 9.89021 30290 ft 439 kts 22°
2026-04-22 20:28 52.29562 9.90349 29566 ft 437 kts 20°
2026-04-22 20:28 52.32443 9.91605 28931 ft 431 kts 20°
2026-04-22 20:28 52.35322 9.92883 28272 ft 427 kts 20°
2026-04-22 20:28 52.38200 9.94040 27613 ft 426 kts 14°
2026-04-22 20:29 52.41100 9.94879 26992 ft 422 kts 14°
2026-04-22 20:29 52.43988 9.95713 26375 ft 418 kts 14°
2026-04-22 20:29 52.46838 9.96539 25777 ft 414 kts 13°
2026-04-22 20:29 52.49663 9.97360 25201 ft 411 kts 13°
2026-04-22 20:30 52.52466 9.98177 24635 ft 407 kts 13°
2026-04-22 20:30 52.55239 9.98986 24061 ft 403 kts 12°
2026-04-22 20:30 52.57992 9.99791 23447 ft 400 kts 12°
2026-04-22 20:30 52.60713 10.00585 22845 ft 395 kts 12°
2026-04-22 20:31 52.63409 10.01371 22237 ft 391 kts 12°
2026-04-22 20:31 52.66074 10.02150 21656 ft 387 kts 12°
2026-04-22 20:31 52.68713 10.02922 21077 ft 383 kts 12°
2026-04-22 20:31 52.71325 10.03687 20513 ft 379 kts 12°
2026-04-22 20:32 52.73911 10.04446 19958 ft 376 kts 12°
2026-04-22 20:32 52.76470 10.05197 19415 ft 372 kts 12°
2026-04-22 20:32 52.79005 10.05943 18885 ft 368 kts 11°
2026-04-22 20:32 52.81517 10.06682 18319 ft 365 kts 11°
2026-04-22 20:33 52.84004 10.07415 17729 ft 361 kts 11°
2026-04-22 20:33 52.86467 10.08142 17159 ft 358 kts 11°
2026-04-22 20:33 52.88907 10.08862 16604 ft 355 kts 11°
2026-04-22 20:33 52.91325 10.09576 16058 ft 351 kts 11°
2026-04-22 20:34 52.93720 10.10284 15577 ft 347 kts 11°
2026-04-22 20:34 52.96080 10.10982 15390 ft 346 kts 11°
2026-04-22 20:34 52.98462 10.11688 15348 ft 348 kts 11°
2026-04-22 20:34 53.00846 10.12396 15347 ft 348 kts 11°
2026-04-22 20:35 53.03228 10.13103 15344 ft 348 kts 11°
2026-04-22 20:35 53.05605 10.13809 15286 ft 346 kts 11°
2026-04-22 20:35 53.07970 10.14513 14962 ft 344 kts 11°
2026-04-22 20:35 53.10317 10.15212 14506 ft 342 kts 11°
2026-04-22 20:36 53.12649 10.15907 13989 ft 339 kts 11°
2026-04-22 20:36 53.14962 10.16599 13429 ft 336 kts 11°
2026-04-22 20:36 53.17252 10.17286 12886 ft 333 kts 11°
2026-04-22 20:36 53.17667 10.17410 12801 ft 332 kts 11°
2026-04-22 20:37 53.19982 10.18105 12262 ft 329 kts 11°
2026-04-22 20:37 53.22226 10.18778 11743 ft 326 kts 11°
2026-04-22 20:37 53.24451 10.19447 11234 ft 323 kts 11°
2026-04-22 20:37 53.26656 10.20110 10731 ft 321 kts 11°
2026-04-22 20:38 53.28815 10.20759 10543 ft 308 kts 11°
2026-04-22 20:38 53.30850 10.21372 10421 ft 294 kts 11°
2026-04-22 20:38 53.32822 10.21965 10314 ft 281 kts 10°
2026-04-22 20:38 53.34709 10.22535 10093 ft 272 kts 10°
2026-04-22 20:39 53.36567 10.23097 9678 ft 270 kts 10°
2026-04-22 20:39 53.38412 10.23644 9268 ft 269 kts 10°
2026-04-22 20:39 53.40245 10.24190 8848 ft 267 kts 10°
2026-04-22 20:39 53.42075 10.24742 8438 ft 266 kts 10°
2026-04-22 20:40 53.43887 10.25297 8050 ft 264 kts 10°
2026-04-22 20:40 53.45692 10.25855 7658 ft 263 kts 10°
2026-04-22 20:40 53.47482 10.26417 7260 ft 262 kts 10°
2026-04-22 20:40 53.49266 10.26987 6894 ft 260 kts 10°
2026-04-22 20:41 53.51037 10.27559 6513 ft 258 kts 10°
2026-04-22 20:41 53.52797 10.28133 6123 ft 257 kts 10°
2026-04-22 20:41 53.54549 10.28713 5735 ft 256 kts 10°
2026-04-22 20:41 53.56287 10.29295 5357 ft 254 kts 10°
2026-04-22 20:42 53.58016 10.29882 4963 ft 253 kts 10°
2026-04-22 20:42 53.59747 10.30277 4560 ft 251 kts 355°
2026-04-22 20:42 53.61447 10.29648 4151 ft 250 kts 344°
2026-04-22 20:42 53.63103 10.28872 3925 ft 242 kts 344°
2026-04-22 20:43 53.64681 10.28148 3790 ft 227 kts 344°
2026-04-22 20:43 53.66161 10.27477 3526 ft 216 kts 344°
2026-04-22 20:43 53.67607 10.26802 3035 ft 215 kts 340°
2026-04-22 20:43 53.68969 10.25827 2584 ft 212 kts 334°
2026-04-22 20:44 53.70284 10.24797 2375 ft 207 kts 334°
2026-04-22 20:44 53.71593 10.23709 2313 ft 203 kts 325°
2026-04-22 20:44 53.72491 10.22085 2284 ft 179 kts 298°
2026-04-22 20:44 53.72727 10.20192 2324 ft 156 kts 267°
2026-04-22 20:45 53.72423 10.18423 2291 ft 165 kts 252°
2026-04-22 20:45 53.71772 10.16725 2209 ft 175 kts 238°
2026-04-22 20:45 53.71054 10.15095 2128 ft 170 kts 239°
2026-04-22 20:45 53.70352 10.13526 2072 ft 165 kts 236°
2026-04-22 20:46 53.68823 10.10604 1777 ft 151 kts 236°
2026-04-22 20:46 53.68210 10.09297 1583 ft 136 kts 239°
2026-04-22 20:46 53.67618 10.08060 1377 ft 137 kts 235°
2026-04-22 20:47 53.66990 10.06850 1168 ft 133 kts 236°
2026-04-22 20:47 53.66431 10.05685 986 ft 124 kts 238°
2026-04-22 20:47 53.65892 10.04581 765 ft 120 kts 236°
2026-04-22 20:47 53.65357 10.03518 606 ft 120 kts 234°
2026-04-22 20:48 53.64815 10.02415 471 ft 123 kts 234°
2026-04-22 20:48 53.64260 10.01289 299 ft 127 kts 231°
2026-04-22 20:48 53.63698 10.00168 126 ft 125 kts 232°
2026-04-22 20:48 53.63179 9.99104 50 ft 101 kts 230°
2026-04-22 20:49 53.62941 9.98634 51 ft 31 kts 230°
2026-04-22 20:49 53.62797 9.98488 51 ft 14 kts 197°
2026-04-22 20:49 53.62699 9.98504 51 ft 13 kts 122°
2026-04-22 20:49 53.62726 9.98628 51 ft 7 kts 51°
2026-04-22 20:50 53.62769 9.98717 51 ft 12 kts 51°
2026-04-22 20:50 53.62831 9.98841 51 ft 16 kts 49°
2026-04-22 20:50 53.62909 9.98998 50 ft 19 kts 50°
2026-04-22 20:50 53.63002 9.99185 51 ft 22 kts 50°
2026-04-22 20:51 53.63072 9.99340 51 ft 17 kts 54°
2026-04-22 20:51 53.63123 9.99466 51 ft 14 kts 55°
2026-04-22 20:51 53.63195 9.99618 50 ft 19 kts 50°
2026-04-22 20:51 53.63291 9.99788 51 ft 21 kts 51°
2026-04-22 20:52 53.63361 9.99929 51 ft 15 kts 50°
2026-04-22 20:52 53.63424 10.00065 51 ft 10 kts 63°
2026-04-22 20:52 53.63430 10.00124 49 ft 5 kts 81°
2026-04-22 20:52 53.63445 10.00200 49 ft 9 kts 75°
2026-04-22 20:53 53.63449 10.00276 51 ft 4 kts 86°
2026-04-22 20:53 53.63451 10.00319 51 ft 7 kts 86°
2026-04-22 20:53 53.63451 10.00328 51 ft 0 kts 85°